When you browse on this site, cookies collect data to enhance your experience and personalize the content and advertising you see.
Visit our Privacy Policy to learn more. By continuing to use the site, you agree to this use of cookies and data.
  • In Hungary
  • List of Countries
  • For 7 days
  • Water Temperature
  • Satellite Maps
  • Weather Map
  • News
  • Weather Widgets
  • user-avatar
    Login

    Hourly Weather Albenga

    Today, 15 December, Saturday

    Time Temperature Precipitation Wind Pressure Humidity
    00:00 +3°C° 0 mm 4 mps 762 mmHg 69%
    01:00 +1°C° 0 mm 4 mps 762 mmHg 69%
    02:00 +1°C° 0 mm 4 mps 762 mmHg 69%
    03:00 +1°C° 0 mm 4 mps 763 mmHg 69%
    04:00 +1°C° 0 mm 4 mps 763 mmHg 69%
    05:00 +1°C° 0 mm 4 mps 763 mmHg 69%
    06:00 +1°C° 0 mm 4 mps 763 mmHg 70%
    07:00 +1°C° 0 mm 4 mps 763 mmHg 70%
    08:00 +3°C° 0 mm 4 mps 764 mmHg 67%
    09:00 +4°C° 0 mm 3 mps 764 mmHg 64%
    10:00 +5°C° 0 mm 3 mps 764 mmHg 61%
    11:00 +5°C° 0 mm 3 mps 764 mmHg 58%
    12:00 +7°C° 0 mm 3 mps 764 mmHg 55%
    13:00 +8°C° 0 mm 2 mps 764 mmHg 53%
    14:00 +8°C° 0 mm 2 mps 764 mmHg 58%
    15:00 +7°C° 0 mm 2 mps 764 mmHg 63%
    16:00 +8°C° 0 mm 1 mps 764 mmHg 68%
    17:00 +7°C° 0 mm 1 mps 764 mmHg 73%
    18:00 +6°C° 0 mm 1 mps 764 mmHg 77%
    19:00 +5°C° 0 mm 1 mps 764 mmHg 82%
    20:00 +5°C° 0 mm 1 mps 764 mmHg 82%
    21:00 +5°C° 0 mm 1 mps 765 mmHg 83%
    22:00 +5°C° 0 mm 1 mps 765 mmHg 84%
    23:00 +5°C° 0 mm 1 mps 765 mmHg 84%

    Tomorrow, 16 December, Sunday

    Time Temperature Precipitation Wind Pressure Humidity
    00:00 +5°C° 0 mm 1 mps 764 mmHg 84%
    01:00 +5°C° 0 mm 1 mps 764 mmHg 84%
    02:00 +5°C° 0 mm 1 mps 764 mmHg 84%
    03:00 +5°C° 0 mm 1 mps 764 mmHg 84%
    04:00 +6°C° 0 mm 1 mps 764 mmHg 84%
    05:00 +5°C° 0 mm 2 mps 764 mmHg 85%
    06:00 +5°C° 0 mm 2 mps 763 mmHg 85%
    07:00 +5°C° 0 mm 2 mps 763 mmHg 86%
    08:00 +6°C° 0 mm 2 mps 763 mmHg 85%
    09:00 +7°C° 0 mm 2 mps 763 mmHg 84%
    10:00 +8°C° 0 mm 3 mps 763 mmHg 83%
    11:00 +8°C° 0.2 mm 3 mps 763 mmHg 83%
    12:00 +8°C° 0.2 mm 3 mps 763 mmHg 84%
    13:00 +8°C° 0.2 mm 3 mps 762 mmHg 85%
    14:00 +8°C° 1.6 mm 3 mps 762 mmHg 87%
    15:00 +7°C° 1.6 mm 3 mps 761 mmHg 90%
    16:00 +6°C° 1.6 mm 4 mps 761 mmHg 92%
    17:00 +5°C° 2.3 mm 4 mps 761 mmHg 92%
    18:00 +5°C° 2.3 mm 4 mps 760 mmHg 93%
    19:00 +5°C° 2.3 mm 4 mps 760 mmHg 93%
    20:00 +5°C° 1.3 mm 5 mps 760 mmHg 92%
    21:00 +5°C° 1.3 mm 5 mps 760 mmHg 91%
    22:00 +3°C° 1.3 mm 5 mps 760 mmHg 91%
    23:00 +3°C° 0.1 mm 5 mps 761 mmHg 90%

    Day after tomorrow, 17 December, Monday

    Time Temperature Precipitation Wind Pressure Humidity
    00:00 +4°C° 0.1 mm 4 mps 761 mmHg 90%
    01:00 +4°C° 0.1 mm 4 mps 761 mmHg 90%
    02:00 +4°C° 0 mm 4 mps 761 mmHg 90%
    03:00 +4°C° 0 mm 4 mps 761 mmHg 90%
    04:00 +4°C° 0 mm 4 mps 761 mmHg 90%
    05:00 +4°C° 0.1 mm 4 mps 761 mmHg 89%
    06:00 +3°C° 0.1 mm 5 mps 762 mmHg 89%
    07:00 +3°C° 0.1 mm 5 mps 762 mmHg 88%
    08:00 +5°C° 0 mm 5 mps 762 mmHg 86%
    09:00 +5°C° 0 mm 5 mps 763 mmHg 84%
    10:00 +6°C° 0 mm 4 mps 763 mmHg 82%
    11:00 +7°C° 0.1 mm 4 mps 763 mmHg 80%
    12:00 +7°C° 0.1 mm 4 mps 763 mmHg 79%
    13:00 +9°C° 0.1 mm 3 mps 763 mmHg 77%
    14:00 +9°C° 0 mm 3 mps 763 mmHg 78%
    15:00 +9°C° 0 mm 3 mps 764 mmHg 79%
    16:00 +8°C° 0 mm 3 mps 764 mmHg 81%
    17:00 +8°C° 0 mm 3 mps 764 mmHg 78%
    18:00 +7°C° 0 mm 2 mps 765 mmHg 76%
    19:00 +7°C° 0 mm 2 mps 766 mmHg 73%
    20:00 +7°C° 0 mm 3 mps 767 mmHg 70%
    21:00 +5°C° 0 mm 3 mps 767 mmHg 66%
    22:00 +5°C° 0 mm 3 mps 768 mmHg 63%
    23:00 +5°C° 0 mm 3 mps 768 mmHg 61%

    18 December, Tuesday

    Time Temperature Precipitation Wind Pressure Humidity
    00:00 +5°C° 0 mm 3 mps 769 mmHg 58%
    01:00 +4°C° 0 mm 3 mps 769 mmHg 55%
    02:00 +4°C° 0 mm 3 mps 769 mmHg 55%
    03:00 +5°C° 0 mm 2 mps 769 mmHg 55%
    04:00 +5°C° 0 mm 2 mps 769 mmHg 55%
    05:00 +5°C° 0 mm 2 mps 770 mmHg 57%
    06:00 +5°C° 0 mm 2 mps 770 mmHg 59%
    07:00 +6°C° 0 mm 1 mps 770 mmHg 61%
    08:00 +7°C° 0 mm 1 mps 770 mmHg 62%
    09:00 +9°C° 0 mm 1 mps 771 mmHg 63%
    10:00 +10°C° 0 mm 1 mps 771 mmHg 64%
    11:00 +11°C° 0 mm 1 mps 771 mmHg 65%
    12:00 +11°C° 0 mm 1 mps 770 mmHg 66%
    13:00 +12°C° 0 mm 2 mps 770 mmHg 67%
    14:00 +12°C° 0 mm 2 mps 770 mmHg 72%
    15:00 +10°C° 0 mm 2 mps 770 mmHg 78%
    16:00 +9°C° 0 mm 2 mps 769 mmHg 83%
    17:00 +8°C° 0 mm 2 mps 770 mmHg 85%
    18:00 +8°C° 0 mm 2 mps 770 mmHg 88%
    19:00 +8°C° 0 mm 1 mps 770 mmHg 90%
    20:00 +7°C° 0 mm 2 mps 770 mmHg 90%
    21:00 +7°C° 0 mm 2 mps 770 mmHg 89%
    22:00 +7°C° 0 mm 2 mps 770 mmHg 89%
    23:00 +7°C° 0 mm 2 mps 769 mmHg 87%

    19 December, Wednesday

    Time Temperature Precipitation Wind Pressure Humidity
    00:00 +7°C° 0 mm 2 mps 769 mmHg 86%
    01:00 +7°C° 0 mm 2 mps 768 mmHg 84%
    02:00 +7°C° 0 mm 2 mps 768 mmHg 84%
    03:00 +7°C° 0 mm 2 mps 768 mmHg 83%
    04:00 +7°C° 0 mm 2 mps 767 mmHg 83%
    05:00 +7°C° 0 mm 2 mps 767 mmHg 83%
    06:00 +7°C° 0 mm 2 mps 766 mmHg 83%
    07:00 +7°C° 0 mm 2 mps 766 mmHg 84%
    08:00 +7°C° 0.1 mm 2 mps 766 mmHg 84%
    09:00 +8°C° 0.1 mm 2 mps 766 mmHg 85%
    10:00 +8°C° 0.1 mm 2 mps 766 mmHg 85%
    11:00 +8°C° 0.6 mm 3 mps 766 mmHg 87%
    12:00 +8°C° 0.6 mm 3 mps 765 mmHg 89%
    13:00 +8°C° 0.6 mm 3 mps 765 mmHg 90%
    14:00 +8°C° 2 mm 3 mps 764 mmHg 91%
    15:00 +8°C° 2 mm 3 mps 764 mmHg 92%
    16:00 +8°C° 2 mm 3 mps 763 mmHg 93%
    17:00 +7°C° 1.3 mm 3 mps 763 mmHg 91%
    18:00 +7°C° 1.3 mm 3 mps 763 mmHg 90%
    19:00 +7°C° 1.3 mm 3 mps 763 mmHg 88%
    20:00 +7°C° 0.6 mm 3 mps 763 mmHg 87%
    21:00 +6°C° 0.6 mm 4 mps 764 mmHg 87%
    22:00 +6°C° 0.6 mm 4 mps 764 mmHg 86%
    23:00 +5°C° 0.2 mm 4 mps 764 mmHg 85%

    20 December, Thursday

    Time Temperature Precipitation Wind Pressure Humidity
    00:00 +5°C° 0.2 mm 4 mps 764 mmHg 85%
    01:00 +5°C° 0.2 mm 4 mps 764 mmHg 84%
    02:00 +5°C° 0.1 mm 4 mps 764 mmHg 84%
    03:00 +4°C° 0.1 mm 4 mps 764 mmHg 84%
    04:00 +4°C° 0.1 mm 4 mps 763 mmHg 84%
    05:00 +4°C° 0 mm 4 mps 764 mmHg 83%
    06:00 +4°C° 0 mm 3 mps 764 mmHg 82%
    07:00 +4°C° 0 mm 3 mps 764 mmHg 82%
    08:00 +5°C° 0 mm 3 mps 764 mmHg 80%
    09:00 +7°C° 0 mm 3 mps 764 mmHg 78%
    10:00 +8°C° 0 mm 2 mps 765 mmHg 76%
    11:00 +9°C° 0 mm 2 mps 764 mmHg 75%
    12:00 +10°C° 0 mm 2 mps 764 mmHg 74%
    13:00 +12°C° 0 mm 2 mps 764 mmHg 73%
    14:00 +11°C° 0 mm 1 mps 764 mmHg 77%
    15:00 +11°C° 0 mm 1 mps 764 mmHg 81%
    16:00 +10°C° 0 mm 1 mps 764 mmHg 85%
    17:00 +9°C° 0 mm 1 mps 764 mmHg 87%
    18:00 +8°C° 0 mm 1 mps 764 mmHg 88%
    19:00 +7°C° 0 mm 1 mps 765 mmHg 90%
    20:00 +6°C° 0 mm 2 mps 765 mmHg 86%
    21:00 +6°C° 0 mm 2 mps 765 mmHg 83%
    22:00 +6°C° 0 mm 2 mps 765 mmHg 80%
    23:00 +6°C° 0 mm 2 mps 765 mmHg 78%
    Show more